Regional Weather Roundup
Issued by NWS

Home | Current Version | Previous Version | Text Only | Print | Product List | Glossary Off
Versions: 1 2 3 4 5 6 7 8 9 10 11 12 13 14 15 16 17 18 19 20 21 22 23 24 25 26 27 28 29 30 31 32 33 34 35 36 37 38 39 40 41 42 43 44 45 46 47 48 49 50

144
ASUS43 KLMK 231910
RWRKY
KENTUCKY REGIONAL WEATHER ROUNDUP
NATIONAL WEATHER SERVICE LOUISVILLE KY
300 PM EDT TUE AUG 23 2016

NOTE "FAIR" INDICATES FEW OR NO CLOUDS BELOW 12,000 FEET
WITH NO SIGNIFICANT WEATHER AND/OR OBSTRUCTIONS TO VISIBILITY.

KYZ001>023-026-027-061>063-070>075-232000-
WESTERN AND SOUTH CENTRAL KENTUCKY

CITY           SKY/WX    TMP DP  RH WIND       PRES   REMARKS
PADUCAH        CLOUDY    81  69  67 S5        30.21F
HENDERSON      CLOUDY    82  63  51 SW3       30.20F
OWENSBORO      MOSUNNY   82  64  54 VRB5      30.22F
HOPKINSVILLE   MOSUNNY   82  67  59 VRB5      30.22F
BOWLING GREEN  CLOUDY    84  59  42 W3        30.23F
GLASGOW        MOSUNNY   80  64  57 SW6       30.24F
$$

KYZ024-025-028>034-038-045-046-053-232000-
NORTH CENTRAL KENTUCKY

CITY           SKY/WX    TMP DP  RH WIND       PRES   REMARKS
LOUISVILLE/SDF PTSUNNY   84  57  39 S5        30.23F
LOUISVILLE/LOU SUNNY     82  58  43 VRB6      30.24F
FORT KNOX      MOSUNNY   81  61  49 SW7       30.23F
$$

KYZ035>037-039>044-047>052-055>060-089>105-232000-
NORTHEAST KENTUCKY

CITY           SKY/WX    TMP DP  RH WIND       PRES   REMARKS
LEXINGTON      SUNNY     82  57  42 CALM      30.26F
COVINGTON      PTSUNNY   81  59  47 VRB5      30.26F
FRANKFORT      SUNNY     83  55  38 NE5       30.24F
$$

KYZ054-064>069-076>088-106>120-232000-
SOUTHEAST KENTUCKY

CITY           SKY/WX    TMP DP  RH WIND       PRES   REMARKS
JACKSON        SUNNY     81  61  50 CALM      30.29F
LONDON         CLOUDY    81  54  39 VRB3      30.28F
SOMERSET       SUNNY     81  57  44 CALM      30.28S
MIDDLESBORO    MOSUNNY   84  60  45 S5        30.28F
MONTICELLO     PTCLDY   N/A N/A N/A W12       30.27F
$$





USA.gov is the U.S. government's official web portal to all federal, state and local government web resources and services.